FW5810 Weather Reports


time (UTC)temp
F
wind
direction
speed
knots
gust
knots
rain 1hr
in
rain 24hr
in
rain mn
in
humidity
%
barometer
mb
20260502220116 43 320 2.6 8.7 0.00 0.12 0.12 46 1017.5
20260502215614 43 346 2.6 3.5 0.00 0.12 0.12 47 1017.4
20260502215110 43 310 0.9 4.3 0.00 0.12 0.12 48 1017.3
20260502214607 43 358 6.1 8.7 0.00 0.12 0.12 46 1017.4
20260502214104 43 343 5.2 7.0 0.00 0.12 0.12 46 1017.3
20260502213602 43 354 4.3 8.7 0.00 0.12 0.12 46 1017.2
20260502213059 43 351 7.0 8.7 0.00 0.12 0.12 47 1017.3
20260502212558 43 317 1.7 8.7 0.00 0.12 0.12 46 1017.1
20260502212055 44 317 2.6 4.3 0.00 0.12 0.12 48 1017.1
20260502211550 43 300 1.7 3.5 0.00 0.12 0.12 50 1017.1
20260502211048 44 358 6.1 9.6 0.00 0.12 0.12 46 1017.1
20260502210545 44 323 3.5 8.7 0.00 0.12 0.12 45 1017.0
20260502210042 44 343 2.6 7.0 0.00 0.12 0.12 47 1016.9
20260502205538 44 25 7.8 12.2 0.00 0.12 0.12 44 1016.9
20260502205036 44 285 2.6 8.7 0.00 0.12 0.12 48 1016.9
20260502204532 44 320 4.3 7.0 0.00 0.12 0.12 44 1017.1
20260502204030 45 348 3.5 6.1 0.00 0.12 0.12 43 1017.0
20260502203527 46 310 2.6 3.5 0.00 0.12 0.12 46 1016.9
20260502203024 45 327 2.6 2.6 0.00 0.12 0.12 52 1016.7
20260502202520 45 347 0.9 0.9 0.00 0.12 0.12 49 1016.9
20260502202019 44 292 0.9 3.5 0.00 0.12 0.12 50 1017.0
20260502201514 44 29 2.6 3.5 0.00 0.12 0.12 49 1017.1
20260502201011 44 6 4.3 7.0 0.00 0.12 0.12 49 1017.1
20260502200507 44 333 3.5 4.3 0.00 0.12 0.12 52 1017.3
20260502200005 44 347 1.7 4.3 0.00 0.12 0.12 53 1017.4
20260502195502 44 347 1.7 4.3 0.00 0.12 0.12 53 1017.4
20260502194958 43 304 3.5 9.6 0.00 0.12 0.12 53 1017.3
20260502194455 43 6 5.2 6.1 0.00 0.12 0.12 55 1017.3
20260502193950 43 348 2.6 3.5 0.00 0.12 0.12 55 1017.4
20260502193448 43 335 7.0 8.7 0.00 0.12 0.12 56 1017.5
20260502192944 43 34 0.9 4.3 0.00 0.12 0.12 58 1017.6
20260502192441 43 33 4.3 6.1 0.00 0.12 0.12 57 1017.5
20260502191937 44 294 2.6 4.3 0.00 0.12 0.12 59 1017.6
20260502191435 44 306 2.6 4.3 0.00 0.12 0.12 59 1017.5
20260502190933 44 314 2.6 3.5 0.00 0.12 0.12 61 1017.7
20260502190430 43 324 2.6 2.6 0.00 0.12 0.12 61 1017.6
20260502185926 44 23 0.9 3.5 0.00 0.12 0.12 58 1017.6
20260502185421 43 293 1.7 3.5 0.00 0.12 0.12 61 1017.9
20260502184919 43 37 4.3 4.3 0.00 0.12 0.12 60 1017.7
20260502184414 44 24 5.2 6.1 0.00 0.12 0.12 61 1018.0
20260502183911 43 54 0.9 0.9 0.00 0.12 0.12 57 1018.0
20260502183407 44 36 2.6 4.3 0.00 0.12 0.12 57 1018.0
20260502182902 42 28 3.5 4.3 0.00 0.12 0.12 63 1017.9
20260502182358 42 329 2.6 4.3 0.00 0.12 0.12 62 1018.0
20260502181854 42 62 0.0 0.9 0.00 0.12 0.12 63 1018.1
20260502181353 42 54 1.7 3.5 0.00 0.12 0.12 64 1018.2
20260502180851 41 328 3.5 8.7 0.00 0.12 0.12 65 1018.1
20260502180348 41 10 5.2 7.0 0.00 0.12 0.12 65 1018.3
20260502170306 39 350 4.3 9.6 0.00 0.12 0.12 80 1018.2
20260502164255 39 9 4.3 4.3 0.00 0.12 0.12 80 1018.4
20260502163750 39 7 4.3 4.3 0.00 0.12 0.12 79 1018.4
20260502163247 39 33 5.2 7.0 0.00 0.12 0.12 80 1018.4
20260502162744 38 97 1.7 2.6 0.00 0.12 0.12 87 1018.2
20260502162240 38 354 2.6 4.3 0.00 0.12 0.12 80 1018.3
20260502161737 38 24 2.6 4.3 0.00 0.12 0.12 82 1018.4
20260502161233 38 31 1.7 4.3 0.00 0.12 0.12 84 1018.3
20260502160732 38 36 6.1 7.0 0.00 0.12 0.12 85 1018.4
20260502160231 38 21 2.6 6.1 0.00 0.12 0.12 86 1018.4
20260502152154 37 351 1.7 2.6 0.00 0.12 0.12 87 1018.1
20260502151652 37 355 0.9 4.3 0.00 0.12 0.12 88 1018.2
20260502151149 37 11 6.1 6.1 0.00 0.12 0.12 86 1018.2
20260502150647 37 20 2.6 4.3 0.00 0.12 0.12 86 1018.1
20260502150143 37 18 3.5 4.3 0.00 0.12 0.12 86 1018.0
20260502140106 36 31 1.7 4.3 0.00 0.12 0.12 90 1017.6
20260502130532 36 51 6.1 9.6 0.00 0.12 0.12 93 1017.0
20260502123515 36 22 6.1 7.0 0.00 0.12 0.12 94 1017.2
20260502123011 36 1 7.0 7.0 0.00 0.12 0.12 94 1017.3
20260502122508 36 62 4.3 7.0 0.00 0.12 0.12 94 1017.3
20260502122005 36 13 5.2 6.1 0.00 0.12 0.12 94 1017.2
20260502121503 36 27 2.6 4.3 0.00 0.12 0.12 94 1017.0
20260502121000 36 24 0.9 2.6 0.00 0.12 0.12 94 1017.2
20260502120456 36 21 2.6 3.5 0.00 0.12 0.12 94 1017.2
20260502115450 36 34 4.3 6.1 0.00 0.12 0.12 95 1017.0
20260502114946 36 34 1.7 2.6 0.00 0.12 0.12 95 1016.9
20260502114443 36 359 4.3 4.3 0.00 0.12 0.12 95 1016.7
20260502113941 36 23 1.7 3.5 0.00 0.12 0.12 95 1016.7
20260502113438 36 20 0.9 2.6 0.00 0.12 0.12 95 1016.9
20260502112937 36 33 0.9 2.6 0.00 0.12 0.12 95 1016.9
20260502112434 36 29 0.9 2.6 0.00 0.12 0.12 95 1017.0
20260502111931 36 43 1.7 3.5 0.00 0.12 0.12 94 1017.0
20260502111428 36 23 1.7 2.6 0.00 0.12 0.12 95 1016.9
20260502110926 36 20 1.7 2.6 0.00 0.12 0.12 95 1016.7
20260502110423 36 22 2.6 4.3 0.00 0.12 0.12 95 1016.6
20260502105920 36 27 2.6 4.3 0.00 0.12 0.12 95 1016.6
20260502105417 36 13 2.6 4.3 0.00 0.12 0.12 95 1016.5
20260502104915 36 39 0.9 4.3 0.00 0.12 0.12 95 1016.6
20260502104407 36 14 1.7 3.5 0.00 0.12 0.12 95 1016.5
20260502103904 36 14 0.0 2.6 0.00 0.12 0.12 96 1016.6
20260502103402 37 2 4.3 4.3 0.00 0.12 0.12 95 1016.4
20260502102858 37 21 2.6 3.5 0.00 0.12 0.12 95 1016.3
20260502102355 37 9 5.2 6.1 0.00 0.12 0.12 95 1016.5
20260502101852 37 22 1.7 2.6 0.00 0.12 0.12 95 1016.4
20260502101350 37 26 2.6 2.6 0.00 0.12 0.12 95 1016.3
20260502100848 37 14 3.5 6.1 0.00 0.12 0.12 95 1016.2
20260502100348 37 39 3.5 4.3 0.05 0.12 0.12 96 1016.3
20260502091321 37 67 0.0 0.9 0.07 0.11 0.11 96 1016.0
20260502090819 37 68 0.9 0.9 0.00 0.10 0.10 96 1016.0
20260502090315 37 57 0.9 0.9 0.00 0.10 0.10 96 1015.9
20260502071211 39 298 0.0 0.0 0.05 0.03 0.03 97 1016.2
20260502070709 39 298 0.0 0.9 0.05 0.03 0.03 97 1016.4
20260502070206 39 354 0.0 0.9 0.07 0.02 0.02 97 1016.3
20260502065704 39 354 0.0 0.9 0.07 0.02 0.02 97 1016.3
20260502065202 39 355 0.0 0.9 0.00 0.01 0.01 97 1016.2
20260502064701 39 355 0.9 0.9 0.00 0.01 0.01 97 1016.4
20260502064157 39 355 0.0 0.0 0.00 0.01 0.01 97 1016.4
20260502063655 39 355 0.0 0.0 0.00 0.01 0.01 97 1016.4
20260502063153 39 355 0.0 0.9 0.00 0.01 0.01 97 1016.3
20260502062649 38 354 1.7 2.6 0.05 0.01 0.01 97 1016.6
20260502062147 38 355 0.0 0.0 0.05 0.01 0.01 97 1016.5
20260502061645 38 355 0.0 0.0 0.00 0.00 0.00 97 1016.5
20260502061143 38 355 0.0 0.0 0.00 0.00 0.00 97 1016.5
20260502060643 38 355 0.0 0.0 0.00 0.00 0.00 97 1016.5
20260502060140 38 355 0.0 0.0 0.00 0.00 0.00 97 1016.7
20260502055637 38 355 0.0 0.0 0.00 0.00 0.00 97 1016.7
20260502055135 38 355 0.0 0.0 0.00 0.00 0.00 97 1016.6
20260502054634 38 355 0.0 0.0 0.00 0.00 0.00 97 1016.6
20260502054131 38 355 0.0 0.0 0.00 0.00 0.00 97 1016.7
20260502053628 38 355 0.0 0.0 0.00 0.00 0.00 97 1016.9
20260502053125 38 355 0.0 0.0 0.00 0.00 0.00 97 1017.0
20260502052623 38 355 0.0 0.0 0.00 0.00 0.00 97 1017.0
20260502052121 38 355 0.0 0.0 0.00 0.00 0.00 97 1017.2
20260502051619 38 355 0.0 0.0 0.00 0.00 0.00 97 1017.1
20260502051117 38 355 0.0 0.0 0.00 0.00 0.00 97 1016.9
20260502050613 38 355 0.0 0.0 0.00 0.00 0.00 97 1016.9
20260502050110 38 355 0.0 0.0 0.00 0.00 0.00 97 1016.9
20260502045606 38 355 0.9 0.9 0.00 0.00 0.00 97 1017.0
20260502045104 37 355 0.0 0.0 0.00 0.00 0.00 97 1017.1
20260502044600 37 355 0.0 0.0 0.00 0.00 0.00 97 1017.2
20260502044057 37 355 0.0 0.0 0.00 0.00 0.00 97 1017.2
20260502043554 37 355 0.0 0.0 0.00 0.00 0.00 97 1017.1
20260502043050 37 355 0.0 0.0 0.00 0.00 0.00 97 1017.3
20260502042545 37 355 0.0 0.0 0.00 0.00 0.00 97 1017.2
20260502042043 37 355 0.0 0.0 0.00 0.00 0.00 97 1017.2
20260502041541 37 355 0.0 0.0 0.00 0.00 0.00 97 1017.3
20260502041037 37 355 0.0 0.0 0.00 0.00 0.00 97 1017.1
20260502040534 37 355 0.0 0.0 0.00 0.00 0.00 97 1017.3
20260502040031 37 355 0.0 0.0 0.00 0.00 0.00 97 1017.2
20260502035527 37 355 0.0 0.0 0.00 0.42 0.42 97 1017.2
20260502035025 37 355 0.0 0.0 0.00 0.42 0.42 97 1017.3
20260502034523 37 355 0.0 0.0 0.00 0.42 0.42 97 1017.4
20260502034021 36 355 0.0 0.0 0.00 0.42 0.42 97 1017.2
20260502033519 36 355 0.0 0.9 0.00 0.42 0.42 97 1017.2
20260502033016 36 355 0.9 0.9 0.00 0.42 0.42 97 1017.2
20260502032511 36 355 0.0 0.9 0.00 0.42 0.42 97 1017.1
20260502032009 36 355 0.0 0.0 0.00 0.42 0.42 97 1017.0
20260502031507 36 355 0.0 0.0 0.00 0.42 0.42 97 1017.1
20260502031004 36 355 0.9 0.9 0.00 0.42 0.42 97 1017.0
20260502030503 36 355 0.0 0.0 0.00 0.42 0.42 97 1017.0
20260502030000 36 355 0.0 0.0 0.00 0.42 0.42 96 1016.9
20260502025457 36 355 0.0 0.9 0.00 0.42 0.42 97 1017.0
20260502024955 36 355 0.0 0.9 0.00 0.42 0.42 96 1016.9
20260502024452 36 355 0.0 0.9 0.00 0.42 0.42 96 1017.0
20260502023951 36 355 0.0 0.0 0.00 0.42 0.42 96 1017.1
20260502023448 36 355 0.0 0.0 0.00 0.42 0.42 96 1016.9
20260502022945 36 355 0.0 0.0 0.00 0.42 0.42 96 1016.9
20260502022441 36 355 0.0 0.0 0.00 0.42 0.42 96 1016.6
20260502021938 36 355 0.0 0.0 0.00 0.42 0.42 96 1017.0
20260502021436 36 355 0.0 0.0 0.00 0.42 0.42 96 1016.9
20260502020933 35 355 0.0 0.0 0.00 0.42 0.42 96 1017.0
20260502020431 36 355 0.0 0.0 0.00 0.42 0.42 96 1016.7
20260502015927 35 355 0.0 0.0 0.00 0.42 0.42 95 1016.6
20260502015425 36 355 0.0 0.0 0.00 0.42 0.42 95 1016.6
20260502014921 36 355 0.0 0.0 0.00 0.42 0.42 95 1016.9
20260502014419 36 355 0.0 0.0 0.00 0.42 0.42 95 1016.7
20260502013915 36 355 0.0 0.0 0.00 0.42 0.42 94 1016.6
20260502013410 36 355 0.0 0.0 0.00 0.42 0.42 94 1016.5
20260502012907 36 355 0.0 0.0 0.00 0.42 0.42 94 1016.3
20260502012405 36 355 0.0 0.0 0.00 0.42 0.42 93 1016.2
20260502011902 37 355 0.0 0.0 0.00 0.42 0.42 93 1016.2
20260502011358 37 355 0.9 0.0 0.00 0.42 0.42 93 1016.2
20260502010855 37 355 0.0 0.0 0.00 0.42 0.42 92 1016.1
20260502010352 38 355 0.0 0.0 0.00 0.42 0.42 92 1016.1
20260502005849 38 355 0.0 0.0 0.00 0.42 0.42 92 1016.0
20260502005347 38 355 0.0 0.0 0.00 0.42 0.42 90 1016.0
20260502004844 38 355 0.0 0.0 0.00 0.42 0.42 88 1015.8
20260502004340 39 355 0.0 0.0 0.00 0.42 0.42 87 1015.8
20260502003838 39 355 0.0 0.0 0.00 0.42 0.42 85 1015.7
20260502003334 40 355 0.0 0.0 0.00 0.42 0.42 83 1015.6
20260502002831 40 355 0.0 0.0 0.00 0.42 0.42 82 1015.3
20260502002328 40 355 0.0 0.9 0.00 0.42 0.42 80 1015.3
20260502001825 41 355 0.0 0.9 0.00 0.42 0.42 80 1015.4
20260502001323 41 3 0.9 2.6 0.00 0.42 0.42 80 1015.3
20260502000820 41 341 0.0 0.0 0.00 0.42 0.42 80 1015.3
20260502000318 41 341 0.0 0.9 0.00 0.42 0.42 78 1015.2
20260501235814 41 340 2.6 3.5 0.00 0.42 0.42 78 1015.2
20260501235310 42 341 0.9 0.9 0.00 0.42 0.42 78 1015.1
20260501234805 42 341 0.9 0.9 0.00 0.42 0.42 77 1015.1
20260501234303 42 32 2.6 4.3 0.00 0.42 0.42 75 1015.1
20260501233801 43 3 0.0 4.3 0.00 0.42 0.42 77 1015.0
20260501233258 43 312 2.6 3.5 0.00 0.42 0.42 76 1015.0
20260501232754 43 351 3.5 7.0 0.00 0.42 0.42 74 1015.0
20260501232251 43 338 2.6 3.5 0.00 0.42 0.42 76 1014.8
20260501231749 42 347 1.7 2.6 0.00 0.42 0.42 77 1015.0
20260501231247 42 4 1.7 2.6 0.00 0.42 0.42 78 1014.8
20260501230745 42 2 0.0 2.6 0.00 0.42 0.42 77 1014.8
20260501230243 42 340 0.9 3.5 0.00 0.42 0.42 75 1014.8
20260501225740 42 340 2.6 8.7 0.00 0.42 0.42 77 1015.0
20260501225238 42 353 7.8 9.6 0.00 0.42 0.42 74 1015.0
20260501224733 42 337 4.3 9.6 0.00 0.42 0.42 75 1014.9
20260501224231 42 326 3.5 9.6 0.00 0.42 0.42 76 1014.7
20260501223727 43 355 5.2 9.6 0.00 0.42 0.42 74 1014.7
20260501223224 43 335 5.2 10.4 0.00 0.42 0.42 78 1014.7
20260501222720 43 346 2.6 6.1 0.00 0.42 0.42 79 1014.5
20260501222217 42 28 6.1 7.0 0.00 0.42 0.42 80 1014.5
20260501221714 42 23 6.1 10.4 0.00 0.42 0.42 80 1014.4
20260501221211 42 31 6.1 13.9 0.00 0.42 0.42 82 1014.2
20260501220709 42 5 7.8 9.6 0.00 0.42 0.42 82 1014.3